When you browse on this site, cookies collect data to enhance your experience and personalize the content and advertising you see.
Visit our Privacy Policy to learn more. By continuing to use the site, you agree to this use of cookies and data.
  • In Hungary
  • List of Countries
  • For 7 days
  • Water Temperature
  • Weather Map
  • News
  • Weather Widgets
  • user-avatar
    Login

    Hourly Weather Bakaevo

    Today, 24 October, Thursday

    Time Temperature Precipitation Wind Pressure Humidity
    00:00 +10°C° 0 mm 4 mps 748 mmHg 97%
    01:00 +8°C° 0 mm 4 mps 748 mmHg 96%
    02:00 +9°C° 0 mm 3 mps 749 mmHg 96%
    03:00 +9°C° 0 mm 3 mps 749 mmHg 96%
    04:00 +8°C° 0 mm 3 mps 749 mmHg 96%
    05:00 +8°C° 0 mm 2 mps 749 mmHg 95%
    06:00 +8°C° 0 mm 2 mps 750 mmHg 95%
    07:00 +8°C° 0 mm 2 mps 750 mmHg 92%
    08:00 +9°C° 0 mm 2 mps 750 mmHg 89%
    09:00 +9°C° 0 mm 3 mps 751 mmHg 85%
    10:00 +10°C° 0 mm 2 mps 751 mmHg 81%
    11:00 +12°C° 0 mm 2 mps 751 mmHg 77%
    12:00 +12°C° 0 mm 2 mps 751 mmHg 72%
    13:00 +13°C° 0 mm 2 mps 752 mmHg 73%
    14:00 +13°C° 0 mm 1 mps 752 mmHg 73%
    15:00 +13°C° 0 mm 1 mps 752 mmHg 73%
    16:00 +12°C° 0 mm 1 mps 752 mmHg 77%
    17:00 +10°C° 0 mm 2 mps 752 mmHg 80%
    18:00 +10°C° 0 mm 2 mps 753 mmHg 83%
    19:00 +9°C° 0 mm 2 mps 753 mmHg 84%
    20:00 +8°C° 0 mm 2 mps 753 mmHg 85%
    21:00 +8°C° 0 mm 1 mps 753 mmHg 86%
    22:00 +8°C° 0 mm 1 mps 753 mmHg 86%
    23:00 +8°C° 0 mm 1 mps 753 mmHg 86%

    Tomorrow, 25 October, Friday

    Time Temperature Precipitation Wind Pressure Humidity
    00:00 +7°C° 0 mm 0 mps 753 mmHg 86%
    01:00 +6°C° 0 mm 0 mps 753 mmHg 86%
    02:00 +7°C° 0 mm 1 mps 753 mmHg 86%
    03:00 +7°C° 0 mm 1 mps 753 mmHg 86%
    04:00 +7°C° 0 mm 1 mps 753 mmHg 86%
    05:00 +7°C° 0 mm 1 mps 753 mmHg 86%
    06:00 +7°C° 0 mm 1 mps 753 mmHg 87%
    07:00 +8°C° 0 mm 1 mps 754 mmHg 84%
    08:00 +9°C° 0 mm 1 mps 754 mmHg 80%
    09:00 +10°C° 0 mm 1 mps 754 mmHg 77%
    10:00 +10°C° 0 mm 2 mps 754 mmHg 75%
    11:00 +12°C° 0 mm 2 mps 754 mmHg 72%
    12:00 +12°C° 0 mm 3 mps 754 mmHg 70%
    13:00 +12°C° 0 mm 3 mps 754 mmHg 71%
    14:00 +13°C° 0 mm 2 mps 754 mmHg 73%
    15:00 +12°C° 0 mm 2 mps 754 mmHg 74%
    16:00 +10°C° 0 mm 2 mps 754 mmHg 78%
    17:00 +10°C° 0 mm 1 mps 754 mmHg 82%
    18:00 +9°C° 0 mm 1 mps 755 mmHg 86%
    19:00 +9°C° 0 mm 1 mps 755 mmHg 87%
    20:00 +9°C° 0 mm 1 mps 755 mmHg 88%
    21:00 +9°C° 0 mm 1 mps 755 mmHg 89%
    22:00 +8°C° 0 mm 1 mps 755 mmHg 89%
    23:00 +8°C° 0 mm 1 mps 755 mmHg 90%

    Day after tomorrow, 26 October, Saturday

    Time Temperature Precipitation Wind Pressure Humidity
    00:00 +8°C° 0 mm 1 mps 755 mmHg 91%
    01:00 +8°C° 0 mm 1 mps 755 mmHg 91%
    02:00 +8°C° 0 mm 1 mps 755 mmHg 91%
    03:00 +7°C° 0 mm 1 mps 755 mmHg 91%
    04:00 +6°C° 0 mm 2 mps 755 mmHg 91%
    05:00 +6°C° 0 mm 2 mps 754 mmHg 91%
    06:00 +6°C° 0 mm 2 mps 754 mmHg 91%
    07:00 +7°C° 0 mm 2 mps 754 mmHg 89%
    08:00 +8°C° 0 mm 3 mps 754 mmHg 86%
    09:00 +9°C° 0 mm 3 mps 754 mmHg 83%
    10:00 +10°C° 0 mm 4 mps 753 mmHg 81%
    11:00 +10°C° 0 mm 5 mps 753 mmHg 78%
    12:00 +13°C° 0 mm 6 mps 752 mmHg 75%
    13:00 +13°C° 0 mm 6 mps 751 mmHg 76%
    14:00 +13°C° 0 mm 6 mps 751 mmHg 77%
    15:00 +13°C° 0 mm 6 mps 750 mmHg 77%
    16:00 +11°C° 0 mm 6 mps 750 mmHg 77%
    17:00 +11°C° 0 mm 6 mps 750 mmHg 77%
    18:00 +10°C° 0 mm 6 mps 749 mmHg 77%
    19:00 +10°C° 0 mm 6 mps 749 mmHg 81%
    20:00 +9°C° 0 mm 7 mps 748 mmHg 84%
    21:00 +9°C° 0 mm 8 mps 748 mmHg 88%
    22:00 +9°C° 0 mm 7 mps 747 mmHg 85%
    23:00 +9°C° 0 mm 7 mps 747 mmHg 82%

    , 27 October, Sunday

    Time Temperature Precipitation Wind Pressure Humidity
    00:00 +8°C° 0 mm 7 mps 746 mmHg 79%
    01:00 +8°C° 0 mm 7 mps 746 mmHg 78%
    02:00 +9°C° 0 mm 7 mps 745 mmHg 77%
    03:00 +9°C° 0 mm 7 mps 745 mmHg 77%
    04:00 +9°C° 0 mm 7 mps 744 mmHg 78%
    05:00 +9°C° 0 mm 7 mps 743 mmHg 79%
    06:00 +9°C° 0 mm 7 mps 743 mmHg 80%
    07:00 +9°C° 0.2 mm 7 mps 742 mmHg 82%
    08:00 +9°C° 0.2 mm 7 mps 742 mmHg 83%
    09:00 +9°C° 0.2 mm 7 mps 741 mmHg 85%
    10:00 +9°C° 1 mm 8 mps 741 mmHg 86%
    11:00 +7°C° 1 mm 8 mps 740 mmHg 87%
    12:00 +7°C° 1 mm 9 mps 740 mmHg 88%
    13:00 +7°C° 0.3 mm 9 mps 739 mmHg 86%
    14:00 +7°C° 0.3 mm 9 mps 739 mmHg 85%
    15:00 +7°C° 0.3 mm 9 mps 739 mmHg 83%
    16:00 +9°C° 0.1 mm 8 mps 738 mmHg 84%
    17:00 +9°C° 0.1 mm 8 mps 738 mmHg 84%
    18:00 +9°C° 0.1 mm 8 mps 738 mmHg 84%
    19:00 +9°C° 0.2 mm 7 mps 738 mmHg 84%
    20:00 +8°C° 0.2 mm 7 mps 739 mmHg 84%
    21:00 +8°C° 0.2 mm 6 mps 739 mmHg 84%
    22:00 +7°C° 0 mm 6 mps 739 mmHg 86%
    23:00 +6°C° 0 mm 5 mps 740 mmHg 88%

    27 October, Sunday

    Time Temperature Precipitation Wind Pressure Humidity
    00:00 +8°C° 0 mm 7 mps 746 mmHg 79%
    01:00 +8°C° 0 mm 7 mps 746 mmHg 78%
    02:00 +9°C° 0 mm 7 mps 745 mmHg 77%
    03:00 +9°C° 0 mm 7 mps 745 mmHg 77%
    04:00 +9°C° 0 mm 7 mps 744 mmHg 78%
    05:00 +9°C° 0 mm 7 mps 743 mmHg 79%
    06:00 +9°C° 0 mm 7 mps 743 mmHg 80%
    07:00 +9°C° 0.2 mm 7 mps 742 mmHg 82%
    08:00 +9°C° 0.2 mm 7 mps 742 mmHg 83%
    09:00 +9°C° 0.2 mm 7 mps 741 mmHg 85%
    10:00 +9°C° 1 mm 8 mps 741 mmHg 86%
    11:00 +7°C° 1 mm 8 mps 740 mmHg 87%
    12:00 +7°C° 1 mm 9 mps 740 mmHg 88%
    13:00 +7°C° 0.3 mm 9 mps 739 mmHg 86%
    14:00 +7°C° 0.3 mm 9 mps 739 mmHg 85%
    15:00 +7°C° 0.3 mm 9 mps 739 mmHg 83%
    16:00 +9°C° 0.1 mm 8 mps 738 mmHg 84%
    17:00 +9°C° 0.1 mm 8 mps 738 mmHg 84%
    18:00 +9°C° 0.1 mm 8 mps 738 mmHg 84%
    19:00 +9°C° 0.2 mm 7 mps 738 mmHg 84%
    20:00 +8°C° 0.2 mm 7 mps 739 mmHg 84%
    21:00 +8°C° 0.2 mm 6 mps 739 mmHg 84%
    22:00 +7°C° 0 mm 6 mps 739 mmHg 86%
    23:00 +6°C° 0 mm 5 mps 740 mmHg 88%

    28 October, Monday

    Time Temperature Precipitation Wind Pressure Humidity
    00:00 +6°C° 0 mm 4 mps 740 mmHg 91%
    01:00 +5°C° 0 mm 4 mps 740 mmHg 92%
    02:00 +5°C° 0 mm 3 mps 740 mmHg 93%
    03:00 +4°C° 0 mm 3 mps 740 mmHg 94%
    04:00 +4°C° 0 mm 3 mps 740 mmHg 94%
    05:00 +4°C° 0 mm 3 mps 740 mmHg 94%
    06:00 +4°C° 0 mm 3 mps 739 mmHg 93%
    07:00 +6°C° 0.1 mm 5 mps 739 mmHg 94%
    08:00 +7°C° 0.1 mm 6 mps 738 mmHg 95%
    09:00 +8°C° 0.1 mm 7 mps 738 mmHg 95%
    10:00 +9°C° 0.1 mm 8 mps 737 mmHg 91%
    11:00 +10°C° 0.1 mm 8 mps 737 mmHg 87%
    12:00 +10°C° 0.1 mm 8 mps 737 mmHg 82%
    13:00 +11°C° 0 mm 8 mps 737 mmHg 80%
    14:00 +11°C° 0 mm 8 mps 736 mmHg 79%
    15:00 +12°C° 0 mm 8 mps 736 mmHg 77%
    16:00 +11°C° 0 mm 7 mps 736 mmHg 79%
    17:00 +11°C° 0 mm 7 mps 736 mmHg 81%
    18:00 +11°C° 0 mm 7 mps 736 mmHg 83%
    19:00 +11°C° 0 mm 7 mps 736 mmHg 83%
    20:00 +11°C° 0 mm 7 mps 737 mmHg 83%
    21:00 +11°C° 0 mm 8 mps 737 mmHg 82%
    22:00 +10°C° 0.2 mm 7 mps 737 mmHg 78%
    23:00 +9°C° 0.2 mm 7 mps 737 mmHg 74%

    29 October, Tuesday

    Time Temperature Precipitation Wind Pressure Humidity
    00:00 +8°C° 0.2 mm 6 mps 738 mmHg 70%
    01:00 +7°C° 0 mm 6 mps 738 mmHg 71%
    02:00 +5°C° 0 mm 6 mps 739 mmHg 73%
    03:00 +5°C° 0 mm 6 mps 739 mmHg 75%
    04:00 +4°C° 0 mm 6 mps 740 mmHg 75%
    05:00 +3°C° 0 mm 6 mps 740 mmHg 75%
    06:00 +2°C° 0 mm 6 mps 741 mmHg 74%
    07:00 +2°C° 0 mm 6 mps 742 mmHg 73%
    08:00 +2°C° 0 mm 7 mps 743 mmHg 71%
    09:00 0°C° 0 mm 7 mps 744 mmHg 69%
    10:00 0°C° 0 mm 7 mps 745 mmHg 70%
    11:00 +1°C° 0 mm 6 mps 746 mmHg 71%
    12:00 +1°C° 0 mm 6 mps 747 mmHg 72%
    13:00 +1°C° 0 mm 5 mps 747 mmHg 71%
    14:00 0°C° 0 mm 5 mps 748 mmHg 70%
    15:00 0°C° 0 mm 5 mps 749 mmHg 69%
    16:00 -1°C° 0 mm 5 mps 750 mmHg 68%
    17:00 -1°C° 0 mm 4 mps 750 mmHg 68%
    18:00 -2°C° 0 mm 4 mps 751 mmHg 67%
    19:00 -1°C° 0 mm 3 mps 752 mmHg 68%
    20:00 -2°C° 0 mm 3 mps 752 mmHg 70%
    21:00 -2°C° 0 mm 2 mps 753 mmHg 71%
    22:00 -2°C° 0 mm 2 mps 753 mmHg 72%
    23:00 -2°C° 0 mm 2 mps 753 mmHg 73%
    Show more